TimeEST,TemperatureF,Dew PointF,Humidity,Sea Level PressureIn,VisibilityMPH,Wind Direction,Wind SpeedMPH,Gust SpeedMPH,PrecipitationIn,Events,Conditions,WindDirDegrees,DateUTC
12:53 AM,73.0,64.9,76,30.02,10.0,NE,11.5,-,N/A,,Clear,40,2012-11-17 05:53:00
1:53 AM,72.0,64.9,78,30.01,10.0,NNE,9.2,-,N/A,,Clear,20,2012-11-17 06:53:00
2:53 AM,72.0,66.0,81,30.00,10.0,NNE,8.1,-,N/A,,Clear,20,2012-11-17 07:53:00
3:53 AM,72.0,66.0,81,30.01,10.0,NNE,8.1,-,N/A,,Clear,20,2012-11-17 08:53:00
4:53 AM,71.1,64.9,81,30.01,10.0,NNE,11.5,-,N/A,,Clear,30,2012-11-17 09:53:00
5:53 AM,71.1,64.9,81,30.03,10.0,NNE,9.2,-,N/A,,Clear,30,2012-11-17 10:53:00
6:53 AM,70.0,64.9,84,30.04,10.0,NNE,11.5,-,N/A,,Clear,30,2012-11-17 11:53:00
7:18 AM,69.8,64.4,83,30.05,10.0,NNE,10.4,-,N/A,,Partly Cloudy,30,2012-11-17 12:18:00
7:53 AM,71.1,64.9,81,30.05,10.0,NNE,15.0,19.6,N/A,,Clear,30,2012-11-17 12:53:00
8:02 AM,71.6,64.4,78,30.05,10.0,NNE,13.8,-,N/A,,Partly Cloudy,30,2012-11-17 13:02:00
8:53 AM,73.0,64.9,76,30.07,10.0,NNE,11.5,19.6,N/A,,Clear,30,2012-11-17 13:53:00
9:53 AM,73.9,64.9,73,30.07,10.0,NNE,11.5,-,N/A,,Clear,30,2012-11-17 14:53:00
10:53 AM,75.9,64.9,69,30.07,10.0,NE,13.8,-,N/A,,Partly Cloudy,40,2012-11-17 15:53:00
11:53 AM,78.1,64.0,62,30.06,10.0,NNE,13.8,-,N/A,,Clear,30,2012-11-17 16:53:00
12:53 PM,77.0,64.0,64,30.04,10.0,NE,10.4,-,N/A,,Clear,40,2012-11-17 17:53:00
1:53 PM,79.0,64.0,60,30.03,10.0,NE,13.8,-,N/A,,Clear,50,2012-11-17 18:53:00
2:53 PM,78.1,64.0,62,30.01,10.0,ENE,15.0,-,N/A,,Clear,60,2012-11-17 19:53:00
3:53 PM,75.9,64.9,69,30.01,10.0,East,6.9,-,N/A,,Partly Cloudy,80,2012-11-17 20:53:00
4:53 PM,75.9,64.9,69,30.01,10.0,ENE,5.8,-,N/A,,Clear,70,2012-11-17 21:53:00
5:53 PM,75.9,64.0,67,30.01,10.0,ENE,9.2,-,N/A,,Clear,60,2012-11-17 22:53:00
6:53 PM,75.9,64.0,67,30.02,10.0,NE,12.7,-,N/A,,Clear,50,2012-11-17 23:53:00
7:53 PM,75.9,64.0,67,30.04,10.0,NE,12.7,-,N/A,,Clear,50,2012-11-18 00:53:00
8:53 PM,75.0,64.0,69,30.05,10.0,NE,10.4,-,N/A,,Clear,50,2012-11-18 01:53:00
9:53 PM,75.0,64.9,71,30.05,10.0,NE,11.5,-,N/A,,Clear,40,2012-11-18 02:53:00
10:53 PM,73.9,64.9,73,30.05,10.0,NNE,9.2,-,N/A,,Clear,30,2012-11-18 03:53:00
11:53 PM,73.9,64.0,71,30.04,10.0,NNE,9.2,-,N/A,,Clear,30,2012-11-18 04:53:00